Location: B�rgermoos
(47.6500°N, 9.0667°E)
Time: 17:02:56
(UTC+00:00)

A-11 Canister half - Pass Details

Date: 09 August 2021
Orbit: 1526 x 1683 km, 47.3° (Epoch: 20 September)

Event Time Altitude Azimuth Distance (km) Brightness Sun altitude
Rises 15:33:25 0° 291° (WNW) 4,915 12.4 30.9°
Reaches altitude 10° 15:37:06 10° 282° (WNW) 3,907 12.4 30.3°
Maximum altitude 15:45:12 29° 227° (SW) 2,630 11.5 28.9°
Drops below altitude 10° 15:53:06 10° 171° (S) 3,795 11.1 27.6°
Sets 15:56:39 0° 161° (SSE) 4,753 11.5 27.0°
